www.pogodaiklimat.ru

Погода и климат >> Архив погоды >> Южная Африка >> Ysterplant


ПОГОДА в Ysterplant

  • Прогноз погоды в Ysterplant
  • Монитор погоды в Ysterplant
  • Климат города

АРХИВ ПОГОДЫ в Ysterplant

Время (UTC), дата Ветер
(напр.,м/с)
 
Видим.   Явления Облачность Т
(С)
Тd
(С)
f
(%)
Тe
(С)
Тes
(С)
Комфортность P
(гПа)
Po
(гПа)
Тmin
(С)
Tmax
(С)
R
(мм)
R24
(мм)
S
(см)
12 11.12 С 2 н/о н/о +29.2 +0.2 15 +27 +27 жарко 855.1 973.4 +10.6 +29.2
18 11.12 Ю 5 20 км 6/0
[Ac trans Ci]
+17.8 +8.7 55 +17 +17 852.6 975.8 +17.8 +29.7
21 11.12 ЮЗ 2 н/о н/о +14.6 +8.6 67 +15 +15 852.7 977.3 +14.6 +29.7
00 12.12 ЮЗ 1 н/о н/о +13.5 +7.7 68 +14 +14 851.9 977.0 +13.5 +29.7
03 12.12 В 1 н/о н/о +14.7 +8.7 67 +15 +15 852.1 976.6 +13.2 +29.7
06 12.12 СВ 1 20 км 9/9 <50 м
[Sc]
+17.0 +8.5 57 +18 +19 854.5 978.2 +13.2
09 12.12 ЮЗ 4 н/о н/о +21.4 +7.4 40 +22 +22 комфорт 854.8 976.5 +13.2 +22.2
12 12.12 З 4 20 км 4/4 1500 м
[Cu med, cong]
+26.6 +6.8 28 +26 +35 жарко 854.9 974.3 +13.2 +26.8
15 12.12 ЮВ 8 н/о н/о +22.8 +9.4 42 +24 +24 комфорт 853.8 974.8 +22.4 +27.4
18 12.12 ЮВ 4 20 км 6/0 2000 м
[Ac trans Ci fib]
+17.6 +9.3 58 +17 +17 852.9 976.2 +17.6 +27.4
21 12.12 В 3 н/о н/о +17.1 +9.8 62 +17 +17 853.2 976.7 +16.9 +27.4
00 13.12 Ю 3 н/о н/о +16.4 +9.1 62 +16 +16 851.5 975.2 +16.4 +27.4
03 13.12 штиль 0 н/о н/о +14.8 +9.0 68 +15 +15 849.9 974.2 +14.8 +27.4
06 13.12 З 3 20 км 5/3 2000 м
[Cu hum Ac und]
+17.9 +9.6 58 +18 +21 851.1 974.1 +14.8
12 13.12 ЮЗ 6 20 км 9/0 2000 м
[Ac trans]
+25.0 +5.4 28 +25 +28 комфорт 852.6 972.5 +14.8 +25.3
18 13.12 ЮЗ 5 20 км 8/8 1500 м
[Sc]
+20.0 +9.4 50 +21 +21 комфорт 853.7 976.0 +20.0 +26.1
21 13.12 ЮЗ 6 н/о н/о +17.9 +10.6 62 +17 +17 855.1 978.5 +17.9 +26.1
00 14.12 ЮЗ 4 н/о н/о +16.2 +12.4 78 +15 +15 854.6 978.7 +16.2 +26.1
03 14.12 ЮВ 2 н/о н/о +14.8 +11.2 79 +14 +14 855.0 979.8 +14.7 +26.1
06 14.12 В 2 20 км {морось} 10/10 1000 м
[Sc]
+15.8 +9.9 68 +16 +16 857.4 982.0 +14.6 0.2
09 14.12 З 2 н/о н/о +21.7 +8.0 41 +23 +23 комфорт 859.0 981.0 +14.6 +22.1
18 14.12 Ю 4 20 км 1/0
[Ci fib]
+19.0 +4.8 39 +19 +19 857.2 980.3 +19.0 +26.1
06 15.12 В 1 20 км ясно +18.5 +7.4 48 +20 +25 857.4 980.7 +11.7
09 15.12 ЮВ 2 н/о н/о +27.2 +6.3 26 +26 +26 жарко 858.4 977.8 +11.7 +27.7
12 15.12 СВ 3 20 км ясно +32.9 +5.8 18 +31 +49 жарко 857.9 974.7 +11.7 +33.8
15 15.12 ЮВ 3 н/о н/о +36.0 +4.8 14 +33 +33 жарко 855.7 971.2 +33.2 +36.7
18 15.12 В 5 20 км 1/0
[Ci fib]
+27.6 +8.7 30 +27 +27 жарко 853.7 972.6 +27.6 +36.7
00 16.12 С 2 н/о н/о +19.8 +7.9 46 +21 +21 комфорт 851.4 973.5 +19.8 +36.7
06 16.12 ЮЗ 6 20 км 9/0
[Ci]
+22.5 +9.4 43 +24 +26 комфорт 854.3 975.5 +16.9
09 16.12 Ю 3 н/о н/о +25.5 +7.8 32 +26 +26 жарко 856.6 976.6 +16.9 +25.9
12 16.12 Ю 5 20 км 9/0
[Cs]
+24.9 +10.2 40 +26 +34 жарко 856.0 976.3 +16.9 +27.2
15 16.12 Ю 4 н/о н/о +22.0 +14.2 61 +25 +25 комфорт 854.7 976.2 +21.2 +27.2
18 16.12 ЮВ 4 20 км {гроза} 9/6 1500 м
[Sc Ac trans]
+19.8 +12.8 64 +22 +22 комфорт 856.0 978.6 +19.7 +27.2
00 17.12 С 1 н/о н/о +17.4 +10.3 63 +18 +18 855.1 978.7 +16.7 +27.2
03 17.12 ЮЗ 2 н/о н/о +17.3 +10.7 65 +18 +18 854.4 978.0 +16.7 +27.2
06 17.12 СВ 3 н/о н/о +20.2 +11.2 56 +22 +22 комфорт 856.1 978.5 +16.7
09 17.12 В 5 н/о н/о +23.0 +12.1 50 +26 +26 жарко 856.6 977.8 +16.7 +23.9
12 17.12 ЮВ 6 20 км 9/9 1500 м
[Sc]
+23.2 +13.5 54 +26 +27 жарко 855.5 976.5 +16.7 +24.0
15 17.12 В 8 н/о н/о +21.4 +12.6 57 +24 +24 комфорт 854.3 976.0 +21.2 +24.0
18 17.12 ЮВ 5 н/о н/о +18.1 +12.1 68 +18 +18 855.1 978.4 +18.0 +24.0
21 17.12 ЮВ 2 н/о н/о +17.3 +11.8 70 +18 +18 855.8 979.5 +17.2 +24.0
00 18.12 З 2 н/о н/о +15.3 +13.5 89 +15 +15 854.4 979.0 +15.2 +24.0 0.4
03 18.12 З 2 н/о н/о +14.7 +13.4 92 +15 +15 854.4 979.2 +14.7 +24.0
06 18.12 ЮЗ 2 20 км слабая морось 10/10 1500 м
[Sc]
+15.4 +13.9 91 +15 +15 856.3 981.0 +14.6 0.4

 

Местоположение метеостанции Ysterplant (Южная Африка): широта -33.90 долгота 18.50 высота над уровнем моря 16 м.

В архиве по умолчанию представлена погода в Ysterplant за последнюю неделю. Архивные данные за месяц целиком и за предыдущие месяцы, начиная с января 2011 года, Вы можете получить, выбрав интересующий диапазон дат из раскрывающегося списка и нажав кнопку "Ввод!".

Внимание! Время в таблицах - всемирное. Для получения местного времени необходимо прибавить поправку, которая в Ysterplant равна 2 ч.

Смотрите также архив погоды в соседних городах и на ближайших метеорологических станциях:

Погода в Table Bay (Южная Африка) (6 км)
Погода в Cape Town (Южная Африка) (9 км)
Погода в Cape Town Airport (Южная Африка) (11 км)
Погода в Cape Town Int Airport (Южная Африка) (11 км)
Погода в Robben Island (Южная Африка) (16 км)
Погода в Slangkop (Южная Африка) (32 км)
Погода в Strand (Южная Африка) (42 км)
Погода в Paarl (Южная Африка) (48 км)
Погода в Cape Point (Южная Африка) (50 км)
Погода в Malmesbury (Южная Африка) (53 км)

Пояснения к столбцам:

Ветер - указаны скорость ветра в м/с - средняя за 10 мин, порывы в срок и между сроками (в фигурных скобках) и направление, откуда дует ветер: С - северный, СВ - северо-восточный, В - восточный, ЮВ - юго-восточный, Ю - южный, ЮЗ - юго-западный, З - западный, СЗ - северо-западный.
Видимость - горизонтальная дальность видимости в метрах или километрах. При видимости от 1 до 10 км при отсутствии осадков обычно наблюдается дымка, при ухудшении видимости до 1 км и менее - туман. В сухую погоду видимость может ухудшаться дымом, пылью или мглою.
Явления - указаны атмосферные явления, наблюдавшиеся в срок или в последний час перед сроком; фигурными скобками обозначены явления, наблюдавшиеся между сроками (за 1-3 часа до срока); квадратными скобками обозначены град или гололедные отложения с указанием их диаметра в мм.
Облачность - указаны через наклонную черту общая и нижняя облачность в баллах и высота нижней границы облаков в метрах; квадратными скобками обозначены формы облаков: Ci - перистые, Cs - перисто-слоистые, Cc - перисто-кучевые, Ac - высококучевые, As - высокослоистые, Sc - слоисто-кучевые, Ns - слоисто-дождевые, Cu - кучевые, Cb - кучево-дождевые. Подробнее классификацию облаков см. в Атласе облаков (PDF).
T - Температура воздуха - температура, измеренная на высоте 2 м над землей.
Td - Температура точки росы - температура, при понижении до которой содержащийся в воздухе водяной пар достигнет насыщения.
f - Относительная влажность воздуха - влажноcть воздуха, измеренная на высоте 2 м над землей.
Te - Эффективная температура - температура, которую ощущает одетый по сезону человек в тени. Характеристика душности погоды. При расчете учитывается влияние влажности воздуха и скорости ветра на теплоощущения человека.
Tes - Эффективная температура на солнце - температура, которую ощущает человек, с поправкой на солнечный нагрев. Характеристика знойности погоды. Зависит от высоты солнца над горизонтом, облачности и скорости ветра. Ночью, в пасмурную погоду, а также при ветре 12 м/с и более поправка равна нулю.
P - Атмосферное давление - приведенное к уровню моря атмосферное давление.
Po - Атмосферное давление - измеренное на уровне метеостанции атмосферное давление.
Tmin - Минимальная температура - минимум температуры воздуха на высоте 2 м над землей.
Tmax - Максимальная температура - максимум температуры воздуха на высоте 2 м над землей.
R - Количество осадков - Количество выпавших осадков за период времени, мм. При наведении курсора мыши на число - период времени, за который выпало указанное количество осадков.
R24 - Количество осадков - Количество выпавших осадков за 24 часа, мм.
S - Снежный покров - Высота снежного покрова, см. При наведении курсора мыши на число - состояние снежного покрова и степень покрытия местности в баллах.